Location: Liberec
(50.7830°N, 15.0500°E)
Time: 08:06:45
(UTC+02:00)

HTV-X1 - Pass Details

Date: 20 May 2026
Orbit: 368 x 378 km, 51.6° (Epoch: 26 May)

Event Time Altitude Azimuth Distance (km) Brightness Sun altitude
Rises 21:43:23 0° 284° (WNW) 2,219 ? -7.4°
Reaches altitude 10° 21:45:25 10° 282° (WNW) 1,369 ? -7.6°
Maximum altitude 21:48:28 72° 198° (SSW) 393 ? -8.0°
Enters shadow 21:51:30 10° 113° (ESE) 1,361 ? -8.3°
